Theta_e
314 313 312 311 311 311 310 309 309 308 308 307 306 306 306 306 306 307 307 306 306 306 306 307 307 308 309 309 310 311 312 312 315 316 318 320 321 326 328 328 329 330 330
314 313 312 311 311 310 309 308 308 307 306 306 306 306 306 306 305 305 305 305 305 305 305 306 306 306 306 307 308 309 310 311 311 312 312 315 318 319 322 326 326 327 327
313 312 312 312 311 310 309 308 307 307 306 306 306 306 306 305 305 304 304 304 304 304 304 305 305 305 306 305 306 306 308 309 310 311 312 313 315 318 319 321 322 323 324
313 312 312 311 310 310 309 308 307 307 306 306 306 305 304 304 304 304 304 304 304 304 305 305 305 305 305 306 307 307 307 309 309 308 308 312 314 315 316 317 316 319 319
313 312 312 311 310 309 309 308 307 307 307 307 306 305 304 304 303 304 304 304 304 305 305 306 305 305 305 305 306 307 307 308 309 309 308 309 313 312 314 314 313 312 315
314 312 312 311 310 309 309 309 308 308 307 307 306 306 305 305 303 302 303 304 305 305 305 306 305 304 304 304 305 305 306 307 307 307 308 310 312 313 313 313 309 308 305
314 313 312 311 310 310 310 309 309 309 308 307 306 306 306 306 305 304 301 304 304 305 305 305 304 303 303 305 305 304 305 306 306 306 306 308 310 311 311 309 307 308 305
315 314 313 312 311 310 310 310 310 309 308 307 307 306 306 306 305 305 302 303 304 304 304 304 304 302 302 302 303 303 304 305 305 305 305 305 306 307 309 307 305 305 304
316 315 314 313 312 311 310 310 311 309 308 306 306 306 306 307 306 305 303 303 304 304 304 304 303 303 302 303 304 303 302 303 304 305 305 304 305 305 305 305 305 305 304
317 316 315 314 313 311 311 310 310 308 307 306 306 306 305 306 305 305 304 304 305 304 304 303 302 301 301 302 303 304 303 303 304 303 304 305 304 305 305 305 305 305 305
317 317 315 314 313 312 311 310 309 308 307 307 306 306 306 306 306 305 305 304 305 304 303 304 302 301 301 302 302 303 303 303 303 304 304 303 303 304 304 305 305 305 306
317 316 315 313 313 311 311 309 308 307 307 307 306 306 305 305 303 304 304 302 304 303 304 304 303 302 302 303 303 301 302 302 304 304 305 305 306 305 305 305 306 306 306
315 315 314 312 312 310 310 309 308 307 307 307 306 306 305 305 305 303 303 303 302 302 303 303 301 303 302 303 302 302 303 304 305 305 305 306 306 306 307 307 307 308 307
313 313 313 310 310 310 310 309 308 307 307 306 305 306 306 306 305 305 304 303 303 302 302 302 302 302 303 302 303 306 306 305 305 307 308 308 307 307 307 307 308 308 308
312 311 310 310 310 309 310 308 308 308 307 305 305 306 306 305 305 305 304 304 304 304 304 304 304 304 304 305 307 308 308 308 308 309 308 307 307 308 307 306 305 306 305
312 311 310 309 310 309 309 309 307 307 306 304 303 305 305 305 304 304 304 303 302 301 302 303 304 305 306 307 308 308 308 308 310 309 309 309 308 307 307 306 305 304 304
311 311 311 309 309 309 308 308 308 306 306 306 304 304 303 305 306 305 305 305 305 304 304 306 306 306 307 307 308 308 308 308 309 309 309 309 308 308 307 307 307 307 307
308 308 309 310 310 309 310 309 309 309 308 306 305 306 305 305 305 305 305 305 304 305 305 307 307 308 308 308 309 308 308 308 308 308 309 309 309 308 308 308 307 308 308
307 308 308 308 308 309 310 310 309 309 308 308 308 307 306 306 305 305 305 304 307 308 308 308 308 308 309 309 309 308 308 307 306 307 307 307 307 306 306 307 307 306 306
302 305 309 307 308 307 307 308 309 309 308 308 308 308 308 305 305 305 304 304 307 308 309 309 309 309 309 309 308 308 308 308 307 307 306 305 305 305 305 305 306 306 307
298 301 305 309 310 309 307 308 308 309 309 308 308 309 309 308 309 309 310 309 309 310 310 310 310 310 309 309 309 309 309 309 309 308 307 306 306 306 308 308 308 308 308
294 295 299 303 303 306 308 308 309 310 310 310 310 309 309 308 310 311 311 311 310 310 310 310 310 310 310 310 310 310 310 310 310 309 309 309 307 306 307 307 307 307 307
290 290 291 292 292 293 293 293 293 295 298 300 303 302 302 304 306 308 309 310 310 310 310 310 310 310 310 310 310 310 310 310 310 310 309 309 308 308 307 307 307 307 307
289 289 289 289 289 289 289 289 289 289 290 291 290 291 292 293 294 294 295 296 299 303 305 309 309 309 309 309 310 310 309 309 309 309 308 308 308 308 306 307 306 306 305
289 289 289 289 289 289 289 289 288 288 288 288 288 288 288 288 288 290 291 293 294 294 297 300 304 308 309 309 309 309 308 307 307 307 306 306 306 306 306 305 304 303 301
288 288 288 288 288 288 288 288 288 288 288 287 287 287 287 287 287 288 287 288 290 291 292 295 298 300 304 308 309 308 307 306 305 305 304 304 304 304 304 303 301 298 296
Wind_Speed
14 14 15 14 14 13 13 12 11 11 9 7 6 5 6 6 6 7 6 7 7 7 8 8 9 10 10 11 12 12 14 16 13 19 18 26 30 23 33 39 45 47 48
13 14 14 14 13 13 12 11 10 9 7 6 4 4 4 5 5 5 5 6 6 6 7 7 9 9 10 11 11 12 14 16 18 20 23 25 25 24 25 28 36 40 45
14 14 14 14 15 15 14 13 11 8 6 4 3 3 3 3 5 6 7 5 5 6 7 8 9 10 11 12 13 15 15 17 19 22 25 25 25 22 24 26 31 32 38
15 15 15 15 14 14 14 14 12 9 7 5 3 2 2 2 4 5 5 5 7 8 8 10 10 12 14 15 17 16 16 16 17 20 21 25 22 21 23 18 21 28 27
18 17 16 15 15 14 14 13 11 9 7 5 4 2 2 1 2 3 3 4 6 8 10 10 10 12 15 20 21 18 16 14 18 21 21 21 20 15 14 15 17 15 15
20 19 17 17 17 16 15 14 11 8 6 5 4 4 5 3 3 2 1 4 5 8 10 11 13 14 18 17 15 14 13 13 18 19 22 20 20 18 19 19 18 11 4
25 20 20 20 19 18 16 15 13 9 7 6 5 6 7 6 7 7 3 2 4 6 7 11 14 13 14 16 15 12 12 10 9 13 16 19 18 19 20 20 21 21 10
26 25 23 22 20 18 17 16 13 10 9 7 6 6 6 8 10 9 7 4 6 6 5 7 8 10 13 17 18 20 15 13 13 10 11 12 12 16 19 18 18 15 17
29 28 26 24 22 20 19 18 15 11 10 8 7 7 5 7 8 10 10 9 8 6 5 3 9 11 14 18 15 13 16 17 17 12 8 6 10 15 19 26 21 22 17
30 31 29 26 24 22 21 19 16 13 11 9 9 8 7 7 8 10 11 10 9 6 4 5 6 10 13 14 12 13 14 19 13 10 10 10 10 10 9 19 20 17 14
28 29 29 28 26 23 21 19 18 15 13 11 11 11 9 10 9 8 15 12 9 6 6 5 7 8 8 9 12 16 15 18 18 15 7 8 10 12 13 15 17 19 12
23 27 29 31 27 24 23 20 18 16 15 13 13 12 11 9 11 11 14 15 12 8 5 7 7 4 5 8 11 20 18 12 12 13 11 11 9 4 10 10 7 6 6
20 25 27 30 29 26 24 22 20 18 16 15 15 14 12 10 8 13 13 15 15 13 9 11 9 5 9 15 17 23 13 7 7 5 4 6 4 3 4 3 4 3 2
20 23 24 27 26 27 24 24 23 21 19 17 17 16 13 10 9 9 14 14 14 14 14 15 13 13 17 19 16 12 11 9 8 7 7 7 5 4 2 3 4 5 6
24 23 25 28 27 25 25 26 27 24 24 23 21 19 17 16 15 13 13 12 11 11 10 10 12 12 13 12 12 11 9 7 6 7 7 7 7 6 6 6 7 7 9
19 19 23 24 26 25 23 22 26 25 28 29 24 20 18 18 16 14 15 15 15 15 10 14 15 14 14 12 9 8 7 7 7 7 7 6 6 5 5 5 7 8 9
15 15 18 26 26 25 24 23 19 22 29 29 32 30 28 21 20 21 18 16 15 16 16 15 17 17 16 14 12 10 7 6 6 7 7 7 6 6 6 7 8 10 11
12 9 12 18 22 24 23 23 23 22 23 27 34 34 34 32 28 25 21 17 14 19 20 18 17 17 16 15 14 13 11 10 10 10 10 10 10 10 9 9 9 11 11
12 15 13 11 22 24 23 23 22 22 23 21 22 23 36 34 29 28 28 22 22 22 21 21 19 19 19 16 16 16 15 13 13 14 14 14 14 14 15 15 14 15 15
18 20 17 16 18 21 22 20 22 23 22 23 22 23 20 23 22 24 25 24 24 25 23 22 22 21 21 19 17 17 17 17 16 16 17 17 17 16 17 18 18 18 17
14 16 18 18 24 21 22 24 24 22 23 24 24 24 23 21 22 22 22 21 23 24 24 22 22 21 20 21 20 19 19 20 19 18 17 17 17 17 17 17 17 16 18
15 12 8 1 9 2 18 20 24 22 22 20 20 20 21 21 18 18 18 18 19 20 22 21 21 22 22 21 21 20 19 19 19 19 19 19 18 19 19 19 19 19 18
28 27 27 25 24 28 27 25 22 22 18 10 7 10 9 3 3 6 10 12 14 17 19 19 21 21 21 21 21 21 21 21 20 19 20 20 19 19 19 18 18 17 15
29 30 27 29 31 31 27 26 27 29 28 26 20 14 10 6 4 4 6 9 12 14 13 17 20 22 21 20 21 21 21 20 19 19 20 20 20 19 18 18 17 15 13
28 28 28 27 27 25 24 23 23 24 24 23 22 20 17 15 12 11 10 12 13 15 16 19 19 20 22 23 24 24 22 25 22 20 17 18 19 18 16 15 13 11 10
26 25 24 23 22 22 20 19 19 20 19 16 15 15 15 14 14 11 15 17 18 18 18 18 17 20 24 24 24 25 27 26 24 23 20 16 16 15 14 13 12 10 10
Wind_Direction
164 158 152 151 150 147 147 143 142 138 133 125 107 86 69 58 49 45 38 23 11 2 353 349 338 333 319 312 309 302 297 306 298 301 293 286 290 266 249 248 247 241 239
176 169 161 156 155 152 150 149 147 143 138 130 111 99 91 73 65 54 42 28 12 350 338 334 327 324 322 317 319 316 303 297 291 289 292 291 283 282 278 258 241 236 234
184 177 172 171 168 164 161 158 156 155 152 146 137 116 93 83 58 41 34 17 356 341 330 319 312 308 303 304 302 307 304 301 297 293 290 283 277 276 276 269 256 243 242
191 189 184 182 180 173 168 165 165 165 166 167 158 133 98 70 51 34 26 16 6 354 342 329 323 315 304 299 291 289 294 295 302 296 288 284 276 269 264 252 245 241 237
194 196 195 185 182 180 175 173 170 171 176 181 181 183 178 139 53 21 18 13 0 348 347 335 326 323 315 308 295 276 281 293 302 303 290 278 265 247 231 235 226 205 190
211 198 194 187 185 187 185 179 177 179 182 195 210 213 216 221 248 321 315 351 338 347 342 345 341 334 330 326 332 277 282 305 308 303 296 283 267 249 241 218 188 168 141
212 204 200 193 191 193 194 191 187 192 195 215 234 234 230 240 251 241 227 291 328 338 346 343 341 349 7 358 350 331 312 306 331 310 319 299 278 254 236 204 192 187 160
213 205 203 200 196 194 198 206 194 192 199 218 240 234 235 248 250 231 223 257 290 308 329 343 350 345 352 354 358 8 24 14 353 334 342 323 291 270 226 202 172 148 150
214 211 205 205 201 200 203 207 202 192 196 207 231 221 218 255 246 215 215 239 260 284 327 347 346 336 334 351 336 340 15 0 10 14 39 23 83 95 114 130 122 124 128
225 220 209 203 205 204 208 206 203 197 201 203 221 221 220 242 249 215 216 234 251 269 311 271 326 347 346 9 11 16 334 357 9 15 39 64 66 66 93 107 114 100 105
232 222 209 202 205 204 205 204 200 195 197 208 220 221 222 244 242 216 223 226 248 271 304 264 293 329 331 355 355 344 335 332 336 353 348 108 102 80 86 117 118 118 115
242 226 212 199 198 202 199 199 197 193 199 207 215 223 227 238 229 230 218 228 239 257 254 256 279 310 303 318 319 326 325 333 4 19 53 62 73 95 96 105 102 133 111
242 226 216 202 194 199 196 198 194 197 203 204 208 218 217 219 221 223 225 220 235 244 240 254 264 251 283 302 317 326 320 300 318 347 5 338 11 49 116 195 212 212 248
234 230 218 199 192 198 198 201 196 196 202 202 203 213 208 211 208 205 219 223 242 237 240 251 255 249 278 297 312 313 305 299 288 280 296 302 292 285 260 242 253 240 237
239 224 212 205 196 204 201 203 203 203 203 201 204 207 202 205 208 201 206 200 210 221 221 241 246 247 267 289 301 305 308 301 288 290 291 291 290 286 283 276 262 256 257
244 228 213 204 197 202 203 208 214 208 216 214 212 209 221 212 212 210 227 226 230 235 234 249 261 267 272 275 272 284 290 291 295 308 307 293 281 268 259 249 241 239 247
248 258 232 213 200 200 197 202 203 222 225 227 228 230 233 230 237 233 231 235 238 239 235 245 261 264 267 270 268 260 248 242 261 286 281 276 271 262 249 249 247 248 254
259 258 261 238 218 207 202 210 211 211 211 223 230 231 235 235 234 239 236 232 234 237 243 243 248 258 260 261 264 261 253 240 233 240 250 258 264 267 263 256 254 255 260
287 244 245 258 234 222 215 214 212 214 217 218 219 229 233 234 234 239 244 238 238 240 241 248 246 251 252 254 258 263 261 256 248 242 242 244 249 253 257 258 260 257 261
278 270 258 243 242 218 220 211 214 212 214 216 215 220 218 215 220 226 232 234 235 242 241 245 249 248 249 248 250 254 257 256 247 241 245 246 247 248 253 257 259 263 265
280 278 266 256 222 217 217 217 215 211 211 217 219 221 215 207 216 222 225 229 236 242 246 244 250 253 251 250 246 244 247 249 250 250 248 246 245 244 247 252 257 260 265
30 35 37 209 107 173 226 213 214 210 212 215 223 227 219 219 230 231 231 232 239 242 247 249 247 250 252 251 252 251 249 248 248 245 244 244 243 243 246 250 257 262 265
40 43 45 49 59 72 63 60 56 67 64 54 98 99 107 146 234 253 256 252 255 255 255 254 254 251 251 251 248 247 248 250 251 247 242 241 242 243 244 248 252 250 244
41 46 47 50 50 54 55 57 61 60 59 62 50 40 44 49 47 332 310 300 286 274 272 268 261 259 256 254 254 250 245 246 247 247 246 245 243 242 243 244 241 241 236
40 43 44 43 47 49 49 50 54 59 60 56 52 46 31 26 21 17 4 343 322 305 289 276 272 268 264 260 255 253 251 249 246 242 240 242 245 241 236 229 224 218 214
40 43 47 49 50 49 49 50 47 48 49 46 42 39 36 24 15 6 11 352 338 325 305 292 283 273 272 265 262 255 248 255 255 246 243 237 235 227 211 204 193 194 200